TimeEST,TemperatureF,Dew PointF,Humidity,Sea Level PressureIn,VisibilityMPH,Wind Direction,Wind SpeedMPH,Gust SpeedMPH,PrecipitationIn,Events,Conditions,WindDirDegrees,DateUTC
12:05 AM,33.8,32.0,93,29.85,0.8,Calm,Calm,-,0.01,Rain,Rain,0,2012-12-05 05:05:00
12:11 AM,33.8,32.0,93,29.85,1.0,Calm,Calm,-,0.01,Rain,Light Rain,0,2012-12-05 05:11:00
12:16 AM,33.8,32.0,93,29.85,2.0,Calm,Calm,-,0.02,Rain,Light Rain,0,2012-12-05 05:16:00
12:25 AM,33.8,33.8,100,29.85,4.0,Calm,Calm,-,0.02,Rain,Light Rain,0,2012-12-05 05:25:00
12:52 AM,34.0,33.1,96,29.87,3.0,Calm,Calm,-,0.02,Rain,Light Rain,0,2012-12-05 05:52:00
12:59 AM,33.8,33.8,100,29.83,2.5,Calm,Calm,-,0.00,Rain,Light Rain,0,2012-12-05 05:59:00
1:14 AM,33.8,33.8,100,29.82,3.0,Calm,Calm,-,0.00,Rain,Light Rain,0,2012-12-05 06:14:00
1:52 AM,35.1,33.1,92,29.83,4.0,Calm,Calm,-,0.02,Rain,Light Rain,0,2012-12-05 06:52:00
2:18 AM,35.6,33.8,93,29.79,2.0,Calm,Calm,-,0.03,Rain,Rain,0,2012-12-05 07:18:00
2:28 AM,35.6,33.8,93,29.78,3.0,Calm,Calm,-,0.04,Rain,Light Rain,0,2012-12-05 07:28:00
2:37 AM,35.6,33.8,93,29.79,2.5,Calm,Calm,-,0.05,Rain,Light Rain,0,2012-12-05 07:37:00
2:44 AM,35.6,33.8,93,29.79,3.0,NNW,6.9,-,0.06,Rain,Light Rain,340,2012-12-05 07:44:00
2:52 AM,37.0,36.0,96,29.82,4.0,Variable,6.9,-,0.06,Rain,Light Rain,0,2012-12-05 07:52:00
3:09 AM,39.2,37.4,93,29.79,2.0,Calm,Calm,-,0.04,Rain,Rain,0,2012-12-05 08:09:00
3:27 AM,39.2,37.4,93,29.80,2.5,Calm,Calm,-,0.06,Rain,Light Rain,0,2012-12-05 08:27:00
3:43 AM,39.2,37.4,93,29.80,2.0,Calm,Calm,-,0.08,Rain,Light Rain,0,2012-12-05 08:43:00
3:52 AM,37.9,37.0,97,29.84,2.0,Calm,Calm,-,0.09,Rain,Light Rain,0,2012-12-05 08:52:00
4:09 AM,39.2,37.4,93,29.82,2.5,SE,4.6,-,0.03,Rain,Rain,140,2012-12-05 09:09:00
4:44 AM,39.2,39.2,100,29.82,3.0,Calm,Calm,-,0.12,Rain,Light Rain,0,2012-12-05 09:44:00
4:52 AM,39.9,39.0,97,29.86,4.0,Calm,Calm,-,0.13,Rain,Light Rain,0,2012-12-05 09:52:00
5:07 AM,39.2,39.2,100,29.82,3.0,Calm,Calm,-,0.01,Rain,Light Rain,0,2012-12-05 10:07:00
5:28 AM,39.2,39.2,100,29.81,2.5,Calm,Calm,-,0.04,Rain,Light Rain,0,2012-12-05 10:28:00
5:43 AM,41.0,39.2,93,29.82,5.0,Calm,Calm,-,0.05,Rain,Light Rain,0,2012-12-05 10:43:00
5:52 AM,42.1,39.9,92,29.86,7.0,Calm,Calm,-,0.05,Rain,Light Rain,0,2012-12-05 10:52:00
6:03 AM,42.8,41.0,93,29.82,7.0,Variable,4.6,-,0.01,Rain,Light Rain,0,2012-12-05 11:03:00
6:16 AM,44.6,39.2,81,29.82,10.0,Variable,5.8,-,0.02,Rain,Light Rain,0,2012-12-05 11:16:00
6:52 AM,42.1,37.9,85,29.85,10.0,Calm,Calm,-,0.02,,Scattered Clouds,0,2012-12-05 11:52:00
7:52 AM,44.1,37.9,79,29.84,10.0,NW,3.5,-,N/A,,Mostly Cloudy,310,2012-12-05 12:52:00
9:52 AM,44.1,35.1,71,29.88,10.0,WNW,8.1,-,N/A,,Scattered Clouds,290,2012-12-05 14:52:00
10:52 AM,44.1,36.0,73,29.87,8.0,West,11.5,21.9,0.00,Rain,Light Rain,280,2012-12-05 15:52:00
11:14 AM,41.0,35.6,81,29.86,10.0,WNW,9.2,20.7,0.00,Rain,Light Rain,300,2012-12-05 16:14:00
11:52 AM,39.9,30.9,70,29.90,10.0,WNW,15.0,28.8,0.01,,Mostly Cloudy,300,2012-12-05 16:52:00
11:59 AM,39.2,30.2,70,29.86,10.0,WNW,13.8,26.5,N/A,,Mostly Cloudy,290,2012-12-05 16:59:00
12:52 PM,37.9,28.0,68,29.91,10.0,NW,9.2,19.6,N/A,,Overcast,310,2012-12-05 17:52:00
1:32 PM,37.4,26.6,65,29.88,10.0,NW,8.1,-,N/A,,Overcast,320,2012-12-05 18:32:00
1:52 PM,36.0,25.0,64,29.93,10.0,NNW,15.0,23.0,N/A,,Overcast,330,2012-12-05 18:52:00
2:31 PM,35.6,23.0,60,29.91,10.0,NNW,6.9,-,N/A,,Overcast,330,2012-12-05 19:31:00
2:52 PM,35.1,21.9,59,29.95,10.0,NW,10.4,19.6,N/A,,Overcast,320,2012-12-05 19:52:00
3:52 PM,34.0,19.9,56,29.98,10.0,NW,11.5,20.7,N/A,,Overcast,310,2012-12-05 20:52:00
4:52 PM,30.9,17.1,57,30.00,10.0,WNW,12.7,26.5,N/A,,Overcast,290,2012-12-05 21:52:00
5:52 PM,30.0,19.9,66,30.03,9.0,WNW,8.1,16.1,0.00,Snow,Light Snow,290,2012-12-05 22:52:00
6:52 PM,28.9,21.0,72,30.04,5.0,Variable,4.6,-,0.00,Snow,Light Snow,0,2012-12-05 23:52:00
7:23 PM,28.4,19.4,69,30.02,4.0,Variable,6.9,-,0.00,Snow,Light Snow,0,2012-12-06 00:23:00
7:52 PM,28.9,18.0,64,30.06,8.0,NNW,11.5,16.1,0.00,Snow,Light Snow,330,2012-12-06 00:52:00
8:10 PM,26.6,19.4,74,30.02,2.0,NW,9.2,21.9,0.00,Snow,Light Snow,320,2012-12-06 01:10:00
8:20 PM,28.4,17.6,64,30.02,7.0,NW,9.2,18.4,0.00,Snow,Light Snow,310,2012-12-06 01:20:00
8:34 PM,28.4,17.6,64,30.03,9.0,NW,9.2,16.1,0.00,Snow,Light Snow,310,2012-12-06 01:34:00
8:52 PM,28.0,18.0,66,30.07,9.0,West,8.1,17.3,0.00,Snow,Light Snow,280,2012-12-06 01:52:00
9:52 PM,27.0,18.0,69,30.09,10.0,West,9.2,-,0.00,,Overcast,280,2012-12-06 02:52:00
10:22 PM,26.6,19.4,74,30.06,5.0,Variable,3.5,-,0.00,Snow,Light Snow,0,2012-12-06 03:22:00
10:52 PM,27.0,18.0,69,30.11,3.0,Variable,5.8,-,0.00,Snow,Light Snow,0,2012-12-06 03:52:00
11:52 PM,27.0,16.0,63,30.13,8.0,Variable,5.8,17.3,0.00,Snow,Light Snow,0,2012-12-06 04:52:00